Location: Barcelona
(41.3829°N, 2.1774°E)
Time: 18:46:43
(UTC+00:00)

ISS - Pass Details

Date: 17 October 2025
Orbit: 414 x 421 km, 51.6° (Epoch: 07 November)

Event Time Altitude Azimuth Distance (km) Brightness Sun altitude
Exits shadow 04:17:29 21° 169° (S) 986 -1.9 -21.0°
Maximum altitude 04:18:39 26° 135° (SE) 851 -1.8 -20.8°
Drops below altitude 10° 04:21:33 10° 76° (ENE) 1,502 0.2 -20.2°
Sets 04:23:51 0° 64° (ENE) 2,372 1.3 -19.8°
